{"data":{"norad_id":68291,"epoch":"2026-05-25T03:28:53.724000Z","epoch_age_seconds":52577,"freshness":"FRESH","line1":"1 68291U 26056A   26145.14506625  .00002580  00000+0  22580-3 0  9996","line2":"2 68291  50.2821  98.7022 0016094 155.3251 204.8471 14.99981544  9814","mean_motion":14.99981544,"eccentricity":0.0016094,"inclination_deg":50.2821,"raan_deg":98.7022,"arg_perigee_deg":155.3251,"mean_anomaly_deg":204.8471,"bstar":0.0002258,"rev_number":981,"period_min":96.001181198533,"perigee_km":555.77588567973,"apogee_km":578.13074238253,"semimajor_km":6945.0903140311,"source":"CELESTRAK","updated_at":"2026-05-25T13:38:07.694475Z"}}